Content
SEND FEEDBACK

Daily
Averages
Monthly
Summary
United States of America

CALION, ARKANSAS


Home > North America > United States > Arkansas
Elevation: 100 feet     Latitude: 33 18N     Longitude: 092 29W

WEATHER
 
SELECT A DAY
Number of Records: 202,423;   Date Range: 1/1/95 - 8/12/14
 
SHARE

PRINT THIS DATA

[ ← Previous Day ]
WEATHER ALMANAC - FEBRUARY 13, 2013
[ Next Day → ]
[ °C ]   °F
Weather ElementAverageHighLow
Temperature43.4 °F50 °F (1:53 pm)36 °F (11:53 pm)
Dewpoint38.4 °F43 °F (12:53 am)34 °F (11:53 pm)
Humidity83.5 %96 % (12:53 am)61 % (1:53 pm)
Barometer30.01 in30.10 in (9:53 am)29.89 in (12:53 am)
Wind Speed6.9 mph11.5 mph (9:53 am)
Weather ElementAverage
Visibility9.8 mi
Wind DirectionWNW (277.4 °)

Weather ElementTotal
Precipitation---
Heating Degree Days22 (Base 65)
Averaged from 39 records on February 13, 2013
WEATHER CONDITIONS BREAKOUT
WIND DIRECTION BREAKOUT
WEATHER BY HOUR - FEBRUARY 13, 2013
[ °C ]   °F
Local TimeTemperatureDewpointHumidityBarometerVisibilityWind DirectionWind SpeedGust SpeedPrecipitationEventsConditions
12:53 AM44.1 °F43.0 °F96 %29.89 in5.0 miWNW (300°)6.9 mph0.00 inRainLight Rain
1:31 AM44.6 °F42.8 °F93 %29.89 in6.0 miWNW (290°)9.2 mph0.00 inRainLight Rain
1:53 AM44.1 °F42.1 °F93 %29.90 in10.0 miWNW (300°)9.2 mph0.00 inOvercast
2:53 AM43.0 °F41.0 °F93 %29.91 in10.0 miWNW (300°)9.2 mphOvercast
3:38 AM42.8 °F41.0 °F93 %29.92 in10.0 miWNW (300°)6.9 mphOvercast
3:50 AM42.8 °F41.0 °F93 %29.93 in10.0 miWNW (300°)10.4 mphOvercast
3:53 AM43.0 °F41.0 °F93 %29.94 in10.0 miWNW (290°)6.9 mphOvercast
4:00 AM42.8 °F41.0 °F93 %29.94 in10.0 miWNW (290°)6.9 mphOvercast
4:45 AM42.8 °F39.2 °F87 %29.95 in10.0 miWNW (300°)6.9 mphOvercast
4:53 AM43.0 °F39.9 °F89 %29.96 in10.0 miWNW (290°)5.8 mphOvercast
5:12 AM42.8 °F39.2 °F87 %29.97 in10.0 miWNW (300°)5.8 mphOvercast
5:19 AM42.8 °F39.2 °F87 %29.97 in10.0 miWNW (290°)5.8 mphOvercast
5:40 AM42.8 °F39.2 °F87 %29.99 in10.0 miWNW (300°)4.6 mphOvercast
5:53 AM42.1 °F39.9 °F92 %29.99 in10.0 miWNW (290°)5.8 mphOvercast
6:17 AM42.8 °F39.2 °F87 %30.00 in10.0 miNW (320°)9.2 mphOvercast
6:32 AM41.0 °F37.4 °F87 %30.00 in10.0 miNW (320°)9.2 mphOvercast
6:42 AM41.0 °F37.4 °F87 %30.01 in10.0 miNW (310°)8.1 mphOvercast
6:53 AM41.0 °F37.0 °F86 %30.01 in10.0 miNNW (340°)6.9 mphOvercast
7:53 AM41.0 °F37.9 °F89 %30.04 in10.0 miNNW (330°)4.6 mphOvercast
8:51 AM42.8 °F37.4 °F81 %30.06 in10.0 miWNW (300°)9.2 mphOvercast
8:53 AM42.1 °F37.9 °F85 %30.07 in10.0 miNW (310°)9.2 mphOvercast
9:12 AM42.8 °F37.4 °F81 %30.08 in10.0 miWNW (290°)8.1 mphOvercast
9:53 AM43.0 °F37.9 °F82 %30.10 in10.0 miWest (280°)11.5 mphOvercast
10:53 AM45.0 °F37.9 °F76 %30.10 in10.0 miNW (320°)9.2 mphOvercast
11:02 AM44.6 °F37.4 °F76 %30.10 in10.0 miNW (320°)8.1 mphOvercast
11:18 AM44.6 °F37.4 °F76 %30.10 in10.0 miNNW (330°)8.1 mphOvercast
11:53 AM46.0 °F37.9 °F73 %30.09 in10.0 miNNW (330°)8.1 mphMostly Cloudy
12:53 PM48.9 °F37.9 °F66 %30.06 in10.0 miVariable5.8 mphScattered Clouds
1:53 PM50.0 °F37.0 °F61 %30.04 in10.0 miWNW (290°)9.2 mphOvercast
2:53 PM50.0 °F37.9 °F63 %30.03 in10.0 miNW (310°)6.9 mphOvercast
3:53 PM50.0 °F37.0 °F61 %30.03 in10.0 miNNW (330°)8.1 mphMostly Cloudy
4:53 PM50.0 °F37.9 °F63 %30.04 in10.0 miWest (260°)5.8 mphMostly Cloudy
5:53 PM46.0 °F37.9 °F73 %30.04 in10.0 miWest (270°)4.6 mphClear
6:53 PM43.0 °F37.0 °F80 %30.04 in10.0 miSW (230°)3.5 mphClear
7:53 PM41.0 °F37.0 °F86 %30.06 in10.0 miWSW (240°)3.5 mphClear
8:53 PM37.9 °F36.0 °F93 %30.07 in10.0 miSW (220°)3.5 mphClear
9:53 PM39.0 °F35.1 °F86 %30.08 in10.0 miSW (220°)4.6 mphClear
10:53 PM37.9 °F35.1 °F89 %30.09 in10.0 miSSW (210°)3.5 mphClear
11:53 PM36.0 °F34.0 °F93 %30.09 in10.0 miCalmClear
Hourly data recorded from KELD, located miles away from Calion, Arkansas







STORIES FROM OUR PARTNERS